Flag for Austria Weather past 2 weeks in Kapfenberg, Styria, Austria

Now
30 °F

Passing clouds.


Feels Like: 30 °F
Forecast: 30 / 45 °F
Wind: No wind

Location: Zeltweg

Current Time: Feb 27, 2015 at 1:32:09 AM

Latest Report: Feb 26, 2015 at 9:50 PM


Visibility: 12 mi

Pressure: 30.04 "Hg

Humidity: 80%

Dew point: 25 °F

Location of KapfenbergLocation

Historic Weather in Kapfenberg — Graph

°F

Kapfenberg temperature yesterday

Maximum temperature yesterday: 45 °F (at 1:20 PM)
Minimum temperature yesterday: 28 °F (at 8:50 PM)
Average temperature yesterday: 38 °F

Past Weeks' High & Low Weather Summary

 TemperatureHumidityPressure
High46 °F (Feb 20, 3:50 PM)100% (Feb 12, 7:20 AM)30.66 "Hg (Feb 12, 7:20 AM)
Low16 °F (Feb 14, 5:50 AM)34% (Feb 20, 2:50 PM)29.56 "Hg (Feb 23, 1:50 PM)
Average34 °F76%30.05 "Hg
* Reported Feb 11 9:50 PM — Feb 26 9:50 PM, Kapfenberg, Weather by CustomWeather, © 2015

Note: Actual official high and low records may vary slightly from our data, if they occured in-between our weather recording intervals... More about our weather records

Advertising

Kapfenberg weather history for previous 24 hours

 ConditionsComfort  
Time TempWeatherWind HumidityBarometerVisibility
9:50 PM
Thu, Feb 26
30 °FPassing clouds.No wind80%30.04 "Hg12 mi
8:50 PM28 °FPassing clouds.No wind93%30.04 "Hg12 mi
7:50 PM32 °FPassing clouds.3 mph80%30.04 "Hg12 mi
6:50 PM34 °FClear.5 mph75%30.04 "Hg12 mi
5:50 PM39 °FPassing clouds.6 mph56%30.01 "Hg31 mi
4:50 PM43 °FPassing clouds.7 mph53%30.01 "Hg31 mi
4:20 PM45 °FPassing clouds.6 mph46%30.01 "Hg31 mi
3:50 PM45 °FPassing clouds.5 mph46%30.01 "Hg31 mi
3:20 PM45 °FPassing clouds.6 mph46%30.04 "Hg31 mi
2:50 PM45 °FScattered clouds.3 mph42%30.04 "Hg31 mi
2:20 PM45 °FScattered clouds.5 mph42%30.04 "Hg31 mi
1:50 PM45 °FScattered clouds.5 mph46%30.04 "Hg31 mi
1:20 PM45 °FScattered clouds.5 mph42%30.07 "Hg31 mi
12:50 PM43 °FScattered clouds.6 mph49%30.07 "Hg31 mi
12:20 PM43 °FScattered clouds.7 mph46%30.07 "Hg31 mi
11:50 AM43 °FScattered clouds.6 mph49%30.09 "Hg31 mi
11:20 AM41 °FScattered clouds.3 mph49%30.09 "Hg25 mi
10:50 AM41 °FScattered clouds.5 mph93%30.09 "Hg25 mi
10:20 AM41 °FScattered clouds.6 mph49%30.09 "Hg25 mi
9:50 AM39 °FScattered clouds.3 mph56%30.09 "Hg25 mi
9:20 AM39 °FScattered clouds.2 mph65%30.09 "Hg22 mi
8:50 AM36 °FScattered clouds.1 mph75%30.09 "Hg19 mi
8:20 AM32 °FScattered clouds.1 mph87%30.09 "Hg19 mi
7:50 AM30 °FBroken clouds.2 mph93%30.09 "Hg19 mi
6:50 AM32 °FBroken clouds.3 mph80%30.09 "Hg12 mi
6:20 AM30 °FPartly cloudy.3 mph86%30.07 "Hg9 mi
5:50 AM30 °FPartly cloudy.2 mph86%30.07 "Hg6 mi
Weather by CustomWeather, © 2015

See weather overviewHow to use our weather pages